Overview Statistics Trail Chart Weather Telemetry Raw packets
 

This is the latest recevied weather packets stored in our database for station/object KB1RMA-4. If no packets are shown the sender has not sent any weather packets the latest 10 day(s).

<< 94 95 96 97 98 99 100 >>
Time Temp. Humidity Pressure Rain* Wind** Luminosity Snow
1787932538 27.22° C 65% 1015.8 hPa 0 mm - 368 W/m² -
1787932234 27.78° C 65% 1015.6 hPa 0 mm - 806 W/m² -
1787931933 27.22° C 65% 1015.6 hPa 0 mm - 596 W/m² -
1787931633 27.22° C 66% 1015.8 hPa 0 mm - 506 W/m² -
1787931332 27.22° C 66% 1015.8 hPa 0 mm - 305 W/m² -
1787931027 27.22° C 66% 1016 hPa 0 mm - 335 W/m² -
1787930726 27.22° C 66% 1016 hPa 0 mm - 291 W/m² -
1787930421 26.67° C 67% 1016.2 hPa 0 mm - 468 W/m² -
1787930116 27.22° C 68% 1016.1 hPa 0 mm - 348 W/m² -
1787929815 27.78° C 68% 1016.1 hPa 0 mm - 471 W/m² -
1787929510 27.22° C 70% 1016 hPa 0 mm - 738 W/m² -
1787929210 26.67° C 72% 1016.1 hPa 0 mm - 530 W/m² -
1787928908 26.67° C 72% 1016 hPa 0 mm - 628 W/m² -
1787928603 25.56° C 74% 1016.1 hPa 0 mm - 592 W/m² -
1787928301 25.56° C 74% 1016 hPa 0 mm - 296 W/m² -
1787928000 25.56° C 74% 1016.1 hPa 0 mm - 477 W/m² -
1787927700 25.56° C 74% 1016 hPa 0 mm - 256 W/m² -
1787927400 25.56° C 74% 1016 hPa 0 mm - 453 W/m² -
1787927096 25.56° C 75% 1016 hPa 0 mm - 544 W/m² -
1787926790 25° C 77% 1016.1 hPa 0 mm - 580 W/m² -
1787926490 25° C 77% 1016 hPa 0 mm - 329 W/m² -
1787926189 25° C 77% 1016.2 hPa 0 mm - 249 W/m² -
1787925889 24.44° C 79% 1016 hPa 0 mm - 408 W/m² -
1787925589 24.44° C 80% 1015.8 hPa 0 mm - 224 W/m² -
1787925284 24.44° C 80% 1016 hPa 0 mm - 208 W/m² -

* Rain latest hour (hover to see other rain measurements)
** Current wind speed in m/s (hover to see current wind gust speed)